Time,TemperatureF,DewpointF,PressureIn,WindDirection,WindDirectionDegrees,WindSpeedMPH,WindSpeedGustMPH,Humidity,HourlyPrecipIn,Conditions,Clouds,dailyrainin,SolarRadiationWatts/m^2,SoftwareType,DateUTC
2013-05-29 00:21:00,61.0,34.0,-100.00,West,280,11.0,17.0,36,0.00,,,0.38,765.000000,,2013-05-29 00:21:00,
2013-05-29 00:32:00,61.0,34.0,-100.00,West,280,11.0,17.0,36,0.00,,,0.38,765.000000,,2013-05-29 00:32:00,
2013-05-29 00:41:00,61.0,34.0,-100.00,West,280,11.0,17.0,36,0.00,,,0.38,765.000000,,2013-05-29 00:41:00,
2013-05-29 00:52:00,61.0,34.0,-100.00,West,280,11.0,17.0,36,0.00,,,0.38,765.000000,,2013-05-29 00:52:00,
2013-05-29 01:22:00,61.0,34.0,-100.00,West,272,11.0,18.0,36,0.00,,,0.37,586.000000,,2013-05-29 01:22:00,
2013-05-29 01:32:00,61.0,34.0,-100.00,West,272,11.0,18.0,36,0.00,,,0.37,586.000000,,2013-05-29 01:32:00,
2013-05-29 01:41:00,61.0,34.0,-100.00,West,272,11.0,18.0,36,0.00,,,0.37,586.000000,,2013-05-29 01:41:00,
2013-05-29 01:52:00,61.0,34.0,-100.00,West,272,11.0,18.0,36,0.00,,,0.37,586.000000,,2013-05-29 01:52:00,
2013-05-29 02:21:00,60.0,35.0,-100.00,West,272,11.0,17.0,39,0.00,,,0.32,393.000000,,2013-05-29 02:21:00,
2013-05-29 02:32:00,60.0,35.0,-100.00,West,272,11.0,17.0,39,0.00,,,0.32,393.000000,,2013-05-29 02:32:00,
2013-05-29 02:42:00,60.0,35.0,-100.00,West,272,11.0,17.0,39,0.00,,,0.32,393.000000,,2013-05-29 02:42:00,
2013-05-29 02:51:00,60.0,35.0,-100.00,West,272,11.0,17.0,39,0.00,,,0.32,393.000000,,2013-05-29 02:51:00,
2013-05-29 03:21:00,56.0,38.0,-100.00,West,275,10.0,19.0,50,0.00,,,0.24,151.000000,,2013-05-29 03:21:00,
2013-05-29 03:33:00,56.0,38.0,-100.00,West,275,10.0,19.0,50,0.00,,,0.24,151.000000,,2013-05-29 03:33:00,
2013-05-29 03:43:00,56.0,38.0,-100.00,West,275,10.0,19.0,50,0.00,,,0.24,151.000000,,2013-05-29 03:43:00,
2013-05-29 03:53:00,56.0,38.0,-100.00,West,275,10.0,19.0,50,0.00,,,0.24,151.000000,,2013-05-29 03:53:00,
2013-05-29 04:23:00,52.0,37.0,-100.00,West,264,5.0,17.0,57,0.00,,,0.14,20.000000,,2013-05-29 04:23:00,
2013-05-29 04:33:00,52.0,37.0,-100.00,West,264,5.0,17.0,57,0.00,,,0.14,20.000000,,2013-05-29 04:33:00,
2013-05-29 04:42:00,52.0,37.0,-100.00,West,264,5.0,17.0,57,0.00,,,0.14,20.000000,,2013-05-29 04:42:00,
2013-05-29 04:52:00,52.0,37.0,-100.00,West,264,5.0,17.0,57,0.00,,,0.14,20.000000,,2013-05-29 04:52:00,
2013-05-29 05:22:00,51.0,39.0,-100.00,WSW,240,4.0,11.0,64,0.00,,,0.02,1.000000,,2013-05-29 05:22:00,
2013-05-29 05:32:00,51.0,39.0,-100.00,WSW,240,4.0,11.0,64,0.00,,,0.02,1.000000,,2013-05-29 05:32:00,
2013-05-29 05:42:00,51.0,39.0,-100.00,WSW,240,4.0,11.0,64,0.00,,,0.02,1.000000,,2013-05-29 05:42:00,
2013-05-29 05:52:00,51.0,39.0,-100.00,WSW,240,4.0,11.0,64,0.00,,,0.02,1.000000,,2013-05-29 05:52:00,
2013-05-29 06:21:00,50.0,40.0,-100.00,SW,235,5.0,7.0,69,0.00,,,0.01,1.000000,,2013-05-29 06:21:00,
2013-05-29 06:31:00,50.0,40.0,-100.00,SW,235,5.0,7.0,69,0.00,,,0.01,1.000000,,2013-05-29 06:31:00,
2013-05-29 06:42:00,50.0,40.0,-100.00,SW,235,5.0,7.0,69,0.00,,,0.01,1.000000,,2013-05-29 06:42:00,
2013-05-29 06:51:00,50.0,40.0,-100.00,SW,235,5.0,7.0,69,0.00,,,0.01,1.000000,,2013-05-29 06:51:00,
2013-05-29 07:21:00,50.0,40.0,-100.00,West,261,4.0,9.0,69,0.00,,,0.01,1.000000,,2013-05-29 07:21:00,
2013-05-29 07:34:00,50.0,40.0,-100.00,West,261,4.0,9.0,69,0.00,,,0.01,1.000000,,2013-05-29 07:34:00,
2013-05-29 07:42:00,50.0,40.0,-100.00,West,261,4.0,9.0,69,0.00,,,0.01,1.000000,,2013-05-29 07:42:00,
2013-05-29 07:52:00,50.0,40.0,-100.00,West,261,4.0,9.0,69,0.00,,,0.01,1.000000,,2013-05-29 07:52:00,
2013-05-29 08:21:00,48.0,41.0,-100.00,WSW,255,14.0,25.0,76,0.01,,,0.01,1.000000,,2013-05-29 08:21:00,
2013-05-29 08:32:00,48.0,41.0,-100.00,WSW,255,14.0,25.0,76,0.01,,,0.01,1.000000,,2013-05-29 08:32:00,
2013-05-29 08:41:00,48.0,41.0,-100.00,WSW,255,14.0,25.0,76,0.01,,,0.01,1.000000,,2013-05-29 08:41:00,
2013-05-29 08:51:00,48.0,41.0,-100.00,WSW,255,14.0,25.0,76,0.01,,,0.01,1.000000,,2013-05-29 08:51:00,
2013-05-29 09:21:00,45.0,42.0,-100.00,SW,229,7.0,25.0,89,0.04,,,0.05,1.000000,,2013-05-29 09:21:00,
2013-05-29 09:33:00,45.0,42.0,-100.00,SW,229,7.0,25.0,89,0.04,,,0.05,1.000000,,2013-05-29 09:33:00,
2013-05-29 09:42:00,45.0,42.0,-100.00,SW,229,7.0,25.0,89,0.04,,,0.05,1.000000,,2013-05-29 09:42:00,
2013-05-29 09:52:00,45.0,42.0,-100.00,SW,229,7.0,25.0,89,0.04,,,0.05,1.000000,,2013-05-29 09:52:00,
2013-05-29 10:22:00,46.0,42.0,-100.00,WSW,248,9.0,20.0,87,0.00,,,0.05,1.000000,,2013-05-29 10:22:00,
2013-05-29 10:32:00,46.0,42.0,-100.00,WSW,248,9.0,20.0,87,0.00,,,0.05,1.000000,,2013-05-29 10:32:00,
2013-05-29 10:42:00,46.0,42.0,-100.00,WSW,248,9.0,20.0,87,0.00,,,0.05,1.000000,,2013-05-29 10:42:00,
2013-05-29 10:52:00,46.0,42.0,-100.00,WSW,248,9.0,20.0,87,0.00,,,0.05,1.000000,,2013-05-29 10:52:00,
2013-05-29 11:21:00,45.0,36.0,-100.00,WSW,255,14.0,21.0,71,0.00,,,0.05,1.000000,,2013-05-29 11:21:00,
2013-05-29 11:32:00,45.0,36.0,-100.00,WSW,255,14.0,21.0,71,0.00,,,0.05,1.000000,,2013-05-29 11:32:00,
2013-05-29 11:42:00,45.0,36.0,-100.00,WSW,255,14.0,21.0,71,0.00,,,0.05,1.000000,,2013-05-29 11:42:00,
2013-05-29 11:51:00,45.0,36.0,-100.00,WSW,255,14.0,21.0,71,0.00,,,0.05,1.000000,,2013-05-29 11:51:00,
2013-05-29 12:21:00,45.0,37.0,-100.00,WSW,258,19.0,34.0,74,0.00,,,0.05,1.000000,,2013-05-29 12:21:00,
2013-05-29 12:32:00,45.0,37.0,-100.00,WSW,258,19.0,34.0,74,0.00,,,0.05,1.000000,,2013-05-29 12:32:00,
2013-05-29 12:42:00,45.0,37.0,-100.00,WSW,258,19.0,34.0,74,0.00,,,0.05,1.000000,,2013-05-29 12:42:00,
2013-05-29 12:51:00,45.0,37.0,-100.00,WSW,258,19.0,34.0,74,0.00,,,0.05,1.000000,,2013-05-29 12:51:00,
2013-05-29 13:21:00,45.0,34.0,-100.00,WSW,255,24.0,39.0,65,0.00,,,0.05,4.000000,,2013-05-29 13:21:00,
2013-05-29 13:31:00,45.0,34.0,-100.00,WSW,255,24.0,39.0,65,0.00,,,0.05,4.000000,,2013-05-29 13:31:00,
2013-05-29 13:42:00,45.0,34.0,-100.00,WSW,255,24.0,39.0,65,0.00,,,0.05,4.000000,,2013-05-29 13:42:00,
2013-05-29 13:52:00,45.0,34.0,-100.00,WSW,255,24.0,39.0,65,0.00,,,0.05,4.000000,,2013-05-29 13:52:00,
2013-05-29 14:21:00,44.0,32.0,-100.00,WSW,244,13.0,31.0,62,0.00,,,0.05,20.000000,,2013-05-29 14:21:00,
2013-05-29 14:32:00,44.0,32.0,-100.00,WSW,244,13.0,31.0,62,0.00,,,0.05,20.000000,,2013-05-29 14:32:00,
2013-05-29 14:41:00,44.0,32.0,-100.00,WSW,244,13.0,31.0,62,0.00,,,0.05,20.000000,,2013-05-29 14:41:00,
2013-05-29 14:51:00,44.0,32.0,-100.00,WSW,244,13.0,31.0,62,0.00,,,0.05,20.000000,,2013-05-29 14:51:00,
2013-05-29 15:21:00,45.0,33.0,-100.00,WSW,250,13.0,31.0,62,0.00,,,0.05,44.000000,,2013-05-29 15:21:00,
2013-05-29 15:32:00,45.0,33.0,-100.00,WSW,250,13.0,31.0,62,0.00,,,0.05,44.000000,,2013-05-29 15:32:00,
2013-05-29 15:42:00,45.0,33.0,-100.00,WSW,250,13.0,31.0,62,0.00,,,0.05,44.000000,,2013-05-29 15:42:00,
2013-05-29 15:53:00,45.0,33.0,-100.00,WSW,250,13.0,31.0,62,0.00,,,0.05,44.000000,,2013-05-29 15:53:00,
2013-05-29 16:22:00,45.0,35.0,-100.00,WSW,246,9.0,22.0,67,0.00,,,0.05,68.000000,,2013-05-29 16:22:00,
2013-05-29 16:32:00,45.0,35.0,-100.00,WSW,246,9.0,22.0,67,0.00,,,0.05,68.000000,,2013-05-29 16:32:00,
2013-05-29 16:42:00,45.0,35.0,-100.00,WSW,246,9.0,22.0,67,0.00,,,0.05,68.000000,,2013-05-29 16:42:00,
2013-05-29 16:52:00,45.0,35.0,-100.00,WSW,246,9.0,22.0,67,0.00,,,0.05,68.000000,,2013-05-29 16:52:00,
2013-05-29 17:22:00,47.0,36.0,-100.00,WSW,245,9.0,18.0,66,0.00,,,0.05,140.000000,,2013-05-29 17:22:00,
2013-05-29 17:32:00,47.0,36.0,-100.00,WSW,245,9.0,18.0,66,0.00,,,0.05,140.000000,,2013-05-29 17:32:00,
2013-05-29 17:42:00,47.0,36.0,-100.00,WSW,245,9.0,18.0,66,0.00,,,0.05,140.000000,,2013-05-29 17:42:00,
2013-05-29 17:52:00,47.0,36.0,-100.00,WSW,245,9.0,18.0,66,0.00,,,0.05,140.000000,,2013-05-29 17:52:00,
2013-05-29 18:22:00,50.0,37.0,-100.00,WSW,257,16.0,25.0,60,0.00,,,0.05,434.000000,,2013-05-29 18:22:00,
2013-05-29 18:32:00,50.0,37.0,-100.00,WSW,257,16.0,25.0,60,0.00,,,0.05,434.000000,,2013-05-29 18:32:00,
2013-05-29 18:42:00,50.0,37.0,-100.00,WSW,257,16.0,25.0,60,0.00,,,0.05,434.000000,,2013-05-29 18:42:00,
2013-05-29 18:51:00,50.0,37.0,-100.00,WSW,257,16.0,25.0,60,0.00,,,0.05,434.000000,,2013-05-29 18:51:00,
2013-05-29 19:21:00,53.0,36.0,-100.00,West,260,13.0,24.0,53,0.00,,,0.05,830.000000,,2013-05-29 19:21:00,
2013-05-29 19:32:00,53.0,36.0,-100.00,West,260,13.0,24.0,53,0.00,,,0.05,830.000000,,2013-05-29 19:32:00,
2013-05-29 19:44:00,53.0,36.0,-100.00,West,260,13.0,24.0,53,0.00,,,0.05,830.000000,,2013-05-29 19:44:00,
2013-05-29 19:52:00,53.0,36.0,-100.00,West,260,13.0,24.0,53,0.00,,,0.05,830.000000,,2013-05-29 19:52:00,
2013-05-29 20:22:00,53.0,38.0,-100.00,WSW,256,16.0,27.0,57,0.00,,,0.05,834.000000,,2013-05-29 20:22:00,
2013-05-29 20:32:00,53.0,38.0,-100.00,WSW,256,16.0,27.0,57,0.00,,,0.05,834.000000,,2013-05-29 20:32:00,
2013-05-29 20:42:00,53.0,38.0,-100.00,WSW,256,16.0,27.0,57,0.00,,,0.05,834.000000,,2013-05-29 20:42:00,
2013-05-29 20:52:00,53.0,38.0,-100.00,WSW,256,16.0,27.0,57,0.00,,,0.05,834.000000,,2013-05-29 20:52:00,
2013-05-29 21:22:00,54.0,36.0,-100.00,WSW,252,10.0,25.0,50,0.00,,,0.05,816.000000,,2013-05-29 21:22:00,
2013-05-29 21:33:00,54.0,36.0,-100.00,WSW,252,10.0,25.0,50,0.00,,,0.05,816.000000,,2013-05-29 21:33:00,
2013-05-29 21:43:00,54.0,36.0,-100.00,WSW,252,10.0,25.0,50,0.00,,,0.05,816.000000,,2013-05-29 21:43:00,
2013-05-29 21:53:00,54.0,36.0,-100.00,WSW,252,10.0,25.0,50,0.00,,,0.05,816.000000,,2013-05-29 21:53:00,
2013-05-29 22:23:00,54.0,35.0,-100.00,West,267,14.0,28.0,48,0.00,,,0.05,726.000000,,2013-05-29 22:23:00,
2013-05-29 22:33:00,54.0,35.0,-100.00,West,267,14.0,28.0,48,0.00,,,0.05,726.000000,,2013-05-29 22:33:00,
2013-05-29 22:42:00,54.0,35.0,-100.00,West,267,14.0,28.0,48,0.00,,,0.05,726.000000,,2013-05-29 22:42:00,
2013-05-29 22:53:00,54.0,35.0,-100.00,West,267,14.0,28.0,48,0.00,,,0.05,726.000000,,2013-05-29 22:53:00,
2013-05-29 23:21:00,55.0,34.0,-100.00,West,268,16.0,25.0,45,0.00,,,0.05,814.000000,,2013-05-29 23:21:00,
2013-05-29 23:33:00,55.0,34.0,-100.00,West,268,16.0,25.0,45,0.00,,,0.05,814.000000,,2013-05-29 23:33:00,
2013-05-29 23:42:00,55.0,34.0,-100.00,West,268,16.0,25.0,45,0.00,,,0.05,814.000000,,2013-05-29 23:42:00,
2013-05-29 23:52:00,55.0,34.0,-100.00,West,268,16.0,25.0,45,0.00,,,0.05,814.000000,,2013-05-29 23:52:00,